Charlottetown, Prince Edward Island

3:21 AM ADT on June 27, 2017 (GMT -0300)
Charlottetown

Weather History for CYYG - March, 2014

Change the Weather History Date:

Saturday, March 22, 2014

  Actual Average Record
Temperature  
Mean Temperature 31 °F -  
Max Temperature 35 °F 40 °F 75 °F (2012)
Min Temperature 27 °F 26 °F 12 °F (1997)
Degree Days  
Heating Degree Days 34    
Moisture  
Dew Point 24 °F    
Average Humidity 74    
Maximum Humidity 100    
Minimum Humidity 41    
Precipitation  
Precipitation 0.12 in 0.12 in - ()
Sea Level Pressure  
Sea Level Pressure 29.76 in    
Wind  
Wind Speed 10 mph ()    
Max Wind Speed 15 mph    
Max Gust Speed 24 mph    
Visibility 11.2 miles    
Events Snow    
Averages and records for this station are not official NWS values.
T = Trace of Precipitation, MM = Missing Value Source: Averaged Metar Reports

Daily Weather History Graph

Daily Weather History Graph

Search for Another Location

Airport or City:

Trip Planner

Search our weather history database for the weather conditions in past years. The results will help you decide how hot, cold, wet, or windy it might be!

Date:

Astronomy

Mar. 22, 2014 Rise Set
Actual Time 7:11 AM ADT 7:27 PM ADT
Civil Twilight 6:41 AM ADT 7:57 PM ADT
Nautical Twilight 6:06 AM ADT 8:33 PM ADT
Astronomical Twilight 5:30 AM ADT 9:09 PM ADT
Moon 12:58 AM ADT (3/22) 10:34 AM ADT (3/22)
Length of Visible Light 13h 16m
Length of Day
12h 16m
Waning Gibbous, 66% of the Moon is Illuminated
Mar 22
Waning Gibbous
Mar 23
Last Quarter
Mar 30
New
Apr 7
First Quarter
Apr 15
Full

Hourly Weather History & Observations

Time (ADT) Temp. Windchill Dew Point Humidity Pressure Visibility Wind Dir Wind Speed Gust Speed Precip Events Conditions
12:00 AM 33.8 °F 25.3 °F 28.4 °F 81% 29.66 in 15.0 mi West 11.5 mph - N/A   Overcast
1:00 AM 33.8 °F 25.3 °F 24.8 °F 70% 29.67 in 15.0 mi West 11.5 mph 20.7 mph N/A   Overcast
2:00 AM 32.0 °F 22.1 °F 24.8 °F 75% 29.68 in 15.0 mi West 13.8 mph - N/A   Overcast
3:00 AM 31 °F - 23 °F 64% 29.70 in 15 mi West 11.5 mph - -   Overcast
3:00 AM 32.0 °F 22.5 °F 23.0 °F 69% 29.70 in 15.0 mi West 12.7 mph 19.6 mph N/A   Overcast
4:00 AM 30.2 °F 20.8 °F 23.0 °F 75% 29.72 in 15.0 mi West 11.5 mph - N/A   Mostly Cloudy
5:00 AM 28.4 °F 18.0 °F 21.2 °F 74% 29.73 in 15.0 mi West 12.7 mph 21.9 mph N/A   Mostly Cloudy
6:00 AM 28.4 °F 18.0 °F 21.2 °F 74% 29.75 in 15.0 mi West 12.7 mph 19.6 mph N/A   Scattered Clouds
7:00 AM 26.6 °F 17.5 °F 21.2 °F 80% 29.78 in 15.0 mi West 9.2 mph - N/A   Partly Cloudy
8:00 AM 26.6 °F 16.8 °F 19.4 °F 74% 29.81 in 15.0 mi West 10.4 mph - N/A   Partly Cloudy
9:00 AM 28 °F - 20 °F 60% 29.84 in 15 mi WNW 15.0 mph - -   Scattered Clouds
9:00 AM 28.4 °F 17.0 °F 19.4 °F 69% 29.84 in 15.0 mi WNW 15.0 mph 24.2 mph N/A   Partly Cloudy
10:00 AM 28.4 °F 18.0 °F 19.4 °F 69% 29.86 in 15.0 mi West 12.7 mph - N/A   Partly Cloudy
11:00 AM 30.2 °F 21.3 °F 21.2 °F 69% 29.88 in 15.0 mi West 10.4 mph - N/A   Partly Cloudy
12:00 PM 32.0 °F 25.6 °F 19.4 °F 60% 29.87 in 15.0 mi West 6.9 mph - N/A   Partly Cloudy
1:00 PM 32.0 °F 25.6 °F 21.2 °F 64% 29.87 in 15.0 mi West 6.9 mph - N/A   Partly Cloudy
2:00 PM 33.8 °F 27.7 °F 17.6 °F 52% 29.86 in 15.0 mi WSW 6.9 mph - N/A   Mostly Cloudy
3:00 PM 35 °F - 20 °F 41% 29.84 in 15 mi SW 6.9 mph - -   Overcast
3:00 PM 33.8 °F 27.0 °F 19.4 °F 56% 29.84 in 15.0 mi SW 8.1 mph - N/A   Overcast
4:00 PM 35.6 °F 30.7 °F 17.6 °F 48% 29.82 in 15.0 mi SSW 5.8 mph - N/A   Overcast
5:00 PM 33.8 °F 27.7 °F 21.2 °F 60% 29.78 in 15.0 mi SSE 6.9 mph - N/A   Overcast
6:00 PM 33.8 °F 27.0 °F 23.0 °F 65% 29.78 in 15.0 mi SSE 8.1 mph - N/A   Overcast
7:00 PM 32.0 °F 25.6 °F 23.0 °F 69% 29.75 in 15.0 mi SSE 6.9 mph - N/A   Overcast
7:36 PM 32.0 °F 28.7 °F 23.0 °F 69% 29.75 in 10.0 mi South 3.5 mph - N/A Snow Light Snow
8:00 PM 32.0 °F 21.6 °F 26.6 °F 80% 29.75 in 1.5 mi South 15.0 mph 23.0 mph N/A Snow Light Snow
8:16 PM 30.2 °F 19.8 °F 28.4 °F 93% 29.74 in 0.8 mi South 13.8 mph - N/A Snow Light Snow
8:28 PM 30.2 °F 20.8 °F 28.4 °F 93% 29.73 in 0.8 mi South 11.5 mph - N/A Snow Light Snow
9:00 PM 30 °F - 30 °F 98% 29.71 in 1 mi South 9.2 mph - - Snow Light Snow
9:00 PM 30.2 °F 22.6 °F 30.2 °F 100% 29.71 in 1.5 mi South 8.1 mph - N/A Snow Light Snow
10:00 PM 30.2 °F 21.3 °F 30.2 °F 100% 29.66 in 1.8 mi South 10.4 mph - N/A Snow Light Snow
10:06 PM 30.2 °F 21.3 °F 30.2 °F 100% 29.66 in 2.5 mi South 10.4 mph - N/A Snow Light Snow
11:00 PM 30.2 °F 21.3 °F 30.2 °F 100% 29.62 in 2.5 mi South 10.4 mph - N/A Snow Light Snow
11:27 PM 30.2 °F 21.3 °F 30.2 °F 100% 29.61 in 1.0 mi South 10.4 mph - N/A Snow Light Snow